THORAD AGENA D DEB, 16715

Orbit data source: Space-Track

THORAD AGENA D DEB, 16715 is space debris in SSO originally from a launch on Wed, 08 Apr 1970 UTC launched from the Air Force Western Test Range (AFWTR). Debris objects in space refer to the collection of defunct objects orbiting the Earth. Examples of debris include non-operational satellites, rocket bodies, and fragments generated from explosions, collisions, or faulty payload assembly.

Loading next visibility...
Identifier
16715, 1970-025PA
Orbit
SSO
Country
Flag of USUS
Related business
Manufacturer
Unknown
Mission
Spacecraft
Bus & Motor
Unknown
Mass
Unknown
Launch date (UTC)
1970-04-08 (56 years ago)
Launch vehicle
Unknown
Launch site
Air Force Western Test Range (AFWTR)
Object type
Payload
Rocket body
Debris
Shape & HBR
Unknown shape, 0.1 m
Radar Cross Section
Medium (>0.1 m² and <1 m²)

Expand to show TLE details & history
Last TLE update: 2 days ago

TLE from 2 days ago
0 THORAD AGENA D DEB
1 16715U 70025PA  26206.74516370  .00000189  00000-0  31043-3 0  9995
2 16715 100.1344  26.1246 0005954 345.8028  28.2744 13.61539373 50989
Epoch: 2026-07-25T17:53Z
TLE epoch observation values (Epoch: 2026-07-25T17:53:02.143Z)
Latitude
13.85533°
Longitude
171.89885°
Altitude
1,028.272 km
Speed
7.341 km/s
True Right ascension
01h 34m 26s
True Declination
13° 46' 43"
Sunlit
Object was in daylight at epoch
Visualization orbit readout
Latitude
Unknown
Longitude
Unknown
Altitude
Unknown
Speed
Unknown
Apparent Right ascension
Unknown
Apparent Declination
Unknown
Sunlit
N/A
Visualization observer readout
Local Sidereal Time
00:03:03
Azimuth
Unknown
Elevation
Unknown
Doppler factor
Unknown
Orbital elements
Apogee altitude
1,031.821 km
Perigee altitude
1,023.003 km
Semi-major axis
7,405.549 km
Eccentricity
0.0006
Inclination
100.1344°
RAAN
26.1246°
Arg. of periapsis
345.8028°
True anomaly
28.30674°
Mean anomaly
28.2744°
Eccentric anomaly
28.29057°
Mean motion
3.40571 °/min
Orbital period
105.7 mins
BSTAR
0.00031043
Loading maneuver chart data...
Computing Atmospheric mass density...
Loading historical data...
Loading historical data...
Loading historical data...
Loading historical data...
Loading historical data...
Loading historical data...
Loading historical data...

Documentation

Showing up to 5 results
|